Theta_e
286 287 286 285 284 284 282 282 280 280 280 279 279 278 277 276 276 275 275 275 275 275 275 275 275 275 274 274 275 274 274 274 269 273 275 275 274 274 275 276 276 276 276
287 286 285 284 283 283 282 281 280 280 279 279 278 277 276 276 275 275 274 274 273 273 273 273 273 274 273 273 273 272 272 273 271 268 272 272 273 274 274 274 275 276 276
287 285 284 283 282 283 282 281 280 279 278 278 277 276 275 275 274 274 274 273 272 272 273 272 272 272 272 272 272 272 272 272 272 270 270 273 273 274 274 274 275 276 277
285 284 284 283 283 283 282 280 280 279 277 277 276 276 274 274 273 273 273 272 271 272 272 272 272 272 272 273 272 273 273 271 271 270 270 271 273 274 275 273 273 276 276
285 284 284 283 283 282 280 279 279 278 277 276 274 274 273 273 273 272 272 272 271 271 272 273 273 273 275 275 273 273 273 272 272 271 271 272 273 273 273 275 273 274 275
285 284 284 282 281 280 279 278 277 276 275 274 274 273 272 273 277 278 274 272 272 272 272 273 274 273 274 276 277 278 277 274 273 273 273 272 272 274 275 274 273 272 270
284 284 282 281 279 278 278 276 275 275 274 273 273 272 272 272 279 279 277 273 273 273 273 273 273 274 274 274 275 277 278 278 279 276 273 273 273 274 274 273 273 273 272
284 282 280 279 278 276 276 275 275 274 274 273 272 273 272 272 280 281 279 275 274 274 273 273 273 273 274 274 274 274 274 275 276 276 275 275 275 276 275 276 275 275 275
281 281 280 279 278 275 275 275 275 274 273 273 273 272 272 272 280 281 279 274 274 273 273 274 273 274 275 277 275 273 274 275 277 278 278 278 279 279 277 273 269 268 267
279 279 278 278 278 276 276 275 275 274 273 273 272 272 272 271 279 280 279 273 272 272 273 274 276 274 276 277 274 274 271 272 272 272 274 273 273 272 274 272 270 267 267
275 274 275 276 277 276 276 274 273 273 272 272 271 271 271 271 275 280 280 273 271 271 272 272 274 275 276 277 278 274 272 274 274 270 268 268 269 270 270 271 272 270 268
274 274 273 274 274 274 273 272 272 271 270 270 270 268 270 270 272 278 279 277 276 270 272 272 273 274 276 276 275 274 275 274 267 265 265 266 267 268 270 271 272 272 272
273 274 273 273 272 272 271 270 270 270 270 269 269 268 268 269 270 277 279 279 278 273 272 273 274 273 273 272 271 273 271 267 265 264 264 266 268 269 270 270 271 272 271
274 273 272 272 270 271 271 271 271 270 270 269 268 268 268 268 270 273 274 276 276 274 272 267 268 269 269 269 267 268 267 267 266 265 265 267 268 268 267 269 269 269 268
274 272 272 272 270 270 271 271 271 272 272 270 270 270 269 268 270 273 272 270 270 271 262 260 262 264 264 264 264 265 265 266 265 265 265 265 266 267 267 268 269 269 267
273 272 271 271 269 270 269 269 275 274 275 276 275 273 272 273 275 275 275 275 275 273 257 257 261 261 261 262 262 262 263 264 264 265 264 265 265 265 265 267 269 268 266
275 273 271 270 268 268 268 267 267 272 275 277 277 276 274 275 276 277 277 277 275 268 253 257 258 259 259 260 260 261 261 262 264 263 264 264 264 265 265 266 267 267 265
274 274 270 270 268 268 268 268 269 268 269 271 276 275 276 277 278 277 276 273 266 260 252 253 253 255 257 258 259 258 259 260 261 262 262 262 263 264 264 266 266 265 265
273 272 270 269 268 268 268 268 269 270 270 270 271 274 276 277 277 276 273 260 258 254 252 251 253 253 255 255 255 256 256 257 259 259 260 262 263 263 265 266 266 265 265
274 273 269 268 267 267 268 268 269 270 269 269 269 270 272 272 267 262 257 256 254 252 254 251 251 251 251 251 251 252 254 256 257 259 260 262 263 264 266 265 265 264 264
272 270 268 267 267 267 268 268 268 268 267 268 266 266 268 266 261 258 256 255 252 253 252 250 250 249 249 248 248 249 253 255 256 258 260 261 262 265 265 265 265 265 264
269 267 267 266 266 266 267 267 266 265 266 261 263 268 270 261 258 257 255 253 252 252 250 248 248 248 249 247 246 249 252 253 255 258 260 261 263 265 264 264 264 264 264
267 266 266 266 266 266 266 265 264 264 262 262 264 266 259 258 256 255 254 252 251 250 248 247 247 248 247 246 247 250 251 253 256 258 258 261 264 264 264 263 263 263 263
265 264 264 263 263 263 263 262 262 262 262 261 260 258 257 256 254 253 252 251 250 247 246 246 246 247 248 248 248 250 252 254 256 258 260 263 264 264 263 262 263 263 263
262 261 262 261 261 261 260 260 260 260 260 259 257 256 255 254 253 253 252 251 249 247 247 246 244 245 246 247 248 249 252 255 256 261 265 265 264 262 262 262 262 263 263
260 260 260 260 260 259 259 258 258 258 257 256 256 255 255 254 253 252 251 250 250 249 247 246 246 246 247 248 250 253 257 262 262 267 266 266 264 262 262 261 262 262 262
Wind_Speed
14 15 15 15 14 13 12 13 13 13 14 15 15 14 13 11 9 8 7 7 7 7 6 5 5 4 3 3 3 4 5 6 10 9 3 8 11 14 13 12 13 13 13
16 15 17 13 14 15 15 15 14 15 14 14 14 14 13 12 11 10 10 9 9 9 8 6 5 5 6 5 4 6 7 7 6 19 13 10 13 14 15 17 13 12 14
13 15 13 14 15 18 16 15 16 15 15 15 15 16 14 13 12 10 9 8 8 8 9 8 7 7 6 5 5 6 6 7 7 10 18 11 12 12 16 15 16 15 13
13 15 17 17 19 18 15 15 16 16 16 15 15 15 14 13 12 11 10 10 8 8 8 8 8 8 9 7 6 7 7 7 8 11 14 16 13 13 13 15 16 13 14
16 17 20 17 14 13 14 15 15 15 15 15 15 12 12 12 10 13 12 11 10 9 8 8 8 8 13 10 6 6 7 7 8 11 13 15 15 14 14 14 18 18 15
16 19 16 14 15 16 15 15 15 15 14 14 15 15 14 9 20 23 15 10 10 9 8 8 7 7 11 13 13 15 13 9 11 11 11 15 21 16 14 15 17 18 24
17 14 13 13 15 15 15 15 16 16 14 14 13 14 14 12 24 23 21 10 10 8 8 7 6 5 7 7 11 15 15 20 23 16 17 16 22 18 19 20 20 20 23
12 11 12 15 15 14 16 17 16 15 17 16 15 15 14 13 26 27 25 11 9 9 8 7 6 6 7 8 8 9 11 13 14 12 15 17 18 17 19 19 22 20 18
10 13 14 16 16 16 16 17 16 15 15 14 13 14 13 10 25 25 20 10 9 9 7 7 6 7 11 13 9 9 12 13 15 22 27 31 33 33 32 19 16 17 20
2 3 6 9 11 13 13 14 12 11 12 11 12 12 13 11 23 23 18 8 9 7 7 7 10 10 14 14 10 9 10 11 11 14 12 15 21 19 29 17 13 17 17
4 7 6 7 9 9 9 9 10 11 11 11 12 11 11 12 14 23 22 9 8 6 6 5 5 11 12 16 18 8 8 14 14 10 10 11 12 13 12 12 14 14 17
5 6 7 8 8 9 12 10 11 12 13 12 11 9 8 9 12 21 22 18 15 6 6 5 5 9 11 15 13 16 17 16 6 8 10 11 12 12 12 13 17 17 17
2 7 8 7 6 10 11 11 10 11 11 11 11 11 9 9 9 22 24 22 19 8 7 9 10 7 9 9 12 15 11 6 6 8 10 11 12 13 17 17 17 19 21
8 7 8 13 12 10 9 10 10 10 11 11 12 12 11 10 11 10 9 10 14 8 8 2 1 2 3 7 6 8 7 6 7 9 11 12 13 13 14 14 16 15 16
9 7 9 8 11 12 11 11 12 13 15 15 14 13 14 12 13 17 14 7 4 5 5 2 1 1 2 3 4 7 7 6 7 9 10 12 13 14 14 14 15 16 17
11 8 9 9 10 8 8 6 20 16 21 22 21 15 10 14 24 25 23 20 18 14 3 3 1 1 3 4 5 7 6 7 8 10 11 12 13 14 15 15 15 15 17
14 11 8 9 8 9 12 12 9 13 24 25 23 23 22 24 30 26 22 21 17 10 3 3 2 2 3 5 5 6 7 7 10 10 11 12 13 14 17 16 16 16 16
14 14 10 10 10 11 10 10 10 13 13 11 23 21 26 30 27 25 22 17 9 3 3 4 3 2 3 5 6 5 7 7 9 10 12 12 12 13 16 16 16 18 17
12 10 10 9 9 10 10 11 11 12 12 12 12 21 24 28 27 25 22 5 6 3 3 3 3 1 4 5 5 6 7 8 10 11 11 12 13 13 16 17 17 23 24
13 15 13 10 10 10 10 11 11 12 13 13 13 13 14 16 10 8 5 5 5 3 3 3 3 1 5 5 5 5 6 8 9 10 12 12 12 13 16 18 17 19 18
9 8 13 9 10 11 11 12 12 12 12 12 10 10 15 12 12 10 8 6 5 4 4 4 3 2 5 4 5 3 6 8 10 11 11 12 13 14 16 17 18 18 18
6 7 8 8 9 10 10 10 11 12 12 11 11 14 21 8 8 8 6 6 4 3 3 2 1 4 6 6 3 4 7 9 9 10 12 12 13 15 15 17 18 18 18
6 8 8 7 8 10 9 9 10 10 11 11 12 10 8 7 7 8 6 5 4 3 2 2 2 5 6 5 3 6 8 9 9 11 13 14 13 15 16 17 19 18 18
6 7 8 7 7 8 9 9 9 12 12 11 9 9 8 7 7 7 5 5 3 2 1 1 2 7 7 6 5 6 8 10 8 11 16 14 13 17 16 17 18 21 19
7 8 8 8 8 8 9 9 9 10 11 10 9 8 8 7 6 5 4 3 2 1 1 3 3 6 10 11 11 12 13 17 12 16 13 11 13 18 17 16 19 19 21
7 8 7 7 7 8 8 9 9 9 10 8 7 7 7 6 6 5 4 3 1 0 3 3 4 9 11 9 11 14 16 18 14 20 10 11 10 13 14 18 23 18 21
Wind_Direction
197 197 197 199 193 185 186 182 174 167 171 174 174 167 169 171 172 168 167 172 169 148 140 159 161 159 187 193 221 236 245 245 271 284 301 307 305 303 301 297 294 295 293
201 196 202 195 188 187 191 184 171 175 173 172 169 169 170 171 170 174 172 179 176 159 156 155 169 186 208 214 218 236 238 248 269 291 298 301 299 300 295 297 296 289 282
201 197 196 196 194 200 194 182 174 172 172 170 172 174 172 173 171 174 171 171 174 161 162 168 176 188 222 219 221 236 247 260 266 279 291 298 297 304 304 295 287 281 275
196 198 201 199 201 199 190 181 178 177 171 174 177 172 172 167 166 166 170 174 171 170 170 178 185 196 213 222 224 243 253 257 267 273 282 292 294 296 289 296 291 282 284
202 202 209 202 196 192 182 180 176 175 175 173 166 166 169 165 168 172 174 175 170 169 179 190 195 210 225 221 220 227 240 253 263 271 279 288 294 297 292 296 289 293 285
206 214 207 187 182 188 178 177 173 173 170 168 173 169 170 171 181 186 177 171 165 172 184 197 209 200 229 243 254 263 260 257 262 267 278 286 286 288 293 293 291 293 293
209 208 194 185 181 183 172 169 175 176 165 170 172 168 171 174 184 187 184 171 169 173 187 199 208 219 219 238 257 265 275 281 278 279 281 284 292 294 293 291 285 279 278
207 191 181 182 184 174 171 176 174 169 173 173 179 178 174 178 185 186 184 170 170 172 189 195 217 238 242 247 249 258 263 259 262 268 274 281 279 282 278 283 285 282 289
203 196 190 183 180 174 179 182 176 172 170 176 176 174 176 178 187 184 178 163 167 191 196 206 217 238 245 265 271 271 272 270 279 283 286 288 289 294 295 295 289 290 285
213 204 167 181 185 186 178 177 174 174 173 164 165 171 170 168 189 187 173 162 174 176 195 210 226 230 253 270 271 270 282 288 292 282 280 293 291 287 287 280 282 280 282
142 131 138 158 166 164 158 164 155 161 158 168 159 159 160 166 188 188 183 181 176 175 192 196 198 245 268 274 290 288 280 288 296 310 296 285 282 281 278 270 268 272 279
144 136 146 151 150 147 151 154 159 158 160 161 155 157 158 168 180 188 194 186 184 176 184 181 209 258 274 293 295 295 294 307 314 292 287 286 285 283 284 282 276 271 266
177 156 150 134 151 152 155 158 165 169 171 170 168 167 168 171 180 191 194 193 188 161 166 188 218 269 291 301 295 300 308 291 281 283 284 287 286 289 293 287 277 281 276
210 188 166 163 166 166 162 166 173 185 186 184 174 173 169 170 174 180 184 184 193 175 169 103 232 267 263 284 300 298 283 283 288 285 286 289 292 292 293 289 295 297 290
225 198 189 196 183 180 190 187 191 200 192 188 184 173 170 176 181 175 163 149 132 152 104 60 29 61 281 264 274 275 279 293 294 290 292 296 296 295 298 295 291 296 291
225 206 203 196 181 182 185 192 207 199 206 208 194 174 167 170 168 169 165 169 175 155 73 115 155 223 264 283 274 280 295 301 295 295 293 292 293 295 298 296 292 296 294
233 221 205 192 198 188 176 172 187 203 195 195 191 177 163 156 163 169 169 158 160 136 120 136 170 220 272 275 271 277 293 295 295 289 287 289 292 293 304 294 303 299 295
233 221 205 201 189 182 186 184 172 174 181 187 178 164 158 157 165 159 155 150 144 122 134 142 191 198 254 268 276 291 290 297 297 293 289 290 293 298 297 302 304 303 300
231 220 201 192 186 186 179 178 169 175 171 162 155 156 155 161 159 154 144 137 151 152 165 149 198 182 262 262 273 277 280 293 293 290 286 290 294 303 299 306 304 305 302
243 225 193 181 175 174 178 170 172 168 163 165 160 157 149 157 138 127 110 138 132 153 154 189 176 191 259 258 271 266 291 296 293 288 292 295 298 296 309 308 307 308 305
223 193 176 172 173 172 172 171 166 161 160 160 148 154 155 145 141 142 146 149 152 158 176 197 125 245 256 258 248 260 282 286 286 289 292 295 300 310 315 308 307 306 305
169 161 162 163 158 165 166 161 155 155 157 139 144 157 142 127 129 133 140 150 154 159 188 138 161 245 262 247 240 274 276 279 286 291 296 296 297 319 316 311 310 310 309
135 142 144 147 154 155 154 149 150 150 139 137 144 150 131 136 139 142 146 143 153 185 145 145 207 273 256 251 230 246 263 274 282 290 292 299 307 321 318 312 313 313 315
94 109 119 115 123 129 133 135 134 136 133 136 127 132 140 141 136 140 144 145 158 166 162 210 221 255 277 276 260 256 254 266 274 285 289 292 315 319 316 315 315 316 316
83 97 105 113 118 119 120 123 125 128 129 128 128 129 127 126 128 127 135 137 146 170 300 263 237 263 270 274 275 277 276 286 288 294 292 304 310 314 315 317 317 320 321
83 90 95 103 112 118 122 122 120 122 122 119 121 126 133 132 127 129 139 150 160 253 270 267 279 275 278 280 280 282 291 297 308 309 313 319 316 318 321 322 324 325 326